Phoenix-Mesa-Gateway Airport
KIWA : now visible

Airfield :











YOU CAN JOIN US ON...

 
LOGIN :

Register | Disclaimer

   EN    FR    IT 

 









Legend :    VFR   Marginal VFR   IFR   Intensive IFR   Very Intensive IFR
Visi :
Ceiling :
>= 8 km
>= 3000ft
5 to 8 km
1000 to 3000 ft
1500m to 5 km
500 to 1000 ft
800 to 1500m
200 to 500 ft
< 800m
< 200 ft
Symbols :   Thunderstorms  Fog  Heavy snow  Heavy precipitations  Wind > 20 kt






- Airport Elevation : 1382 ft


KIWA - Phoenix-Mesa-Gateway

CURRENT METAR :
  • 121647Z 11003KT 10SM SKC 29/M04 A3002

EXPIRED METARs :
  • 121550Z 00000KT 10SM SKC 27/M05 A3001
  • 121450Z 14007KT 10SM SKC 23/M06 A3000

TAF KIWA
Valid from the 12 at 12:00 until the 13 at 12:00 UTC


121120Z 1212/1312 13005KT P6SM SKC
FM121600 16005KT P6SM SKC
FM122000 26007KT P6SM SKC
FM130700 12005KT P6SM SKC
KZAB FIR / North America



MET'MAP, your aeronautical weather chart ! - Copyright ORBIFLY December 2007 - Disclaimer

ORBIFLY MET'MAP TEAM :

Programming & Development : Alexandra Zaïnal
Concept & original design : Baudouin d'Aumeries
Assistance for programming : Marc-Olivier Méhu
Technical & hardware support : Manuel Goepfert

Contact : metmap@orbifly.com




SOURCES & CREDITS :

   NOAA       Earth
Advisory